Miscellaneous Local Product
Issued by NWS Hastings, NE

Home | Current Version | Previous Version | Graphics & Text | Print | Product List | Glossary On
Versions: 1 2 3 4 5 6 7 8 9 10 11 12 13 14 15 16 17 18 19 20 21 22 23 24 25 26 27 28 29 30 31 32 33 34 35 36 37 38 39 40 41 42 43 44 45 46 47 48 49 50
000
AXUS43 KGID 171302
MISGRI

GID CWA HOURLY WEATHER ROUNDUP
NATIONAL WEATHER SERVICE HASTINGS NE
700 AM CST TUE JAN 17 2017

NOTE: "FAIR" INDICATES FEW OR NO CLOUDS BELOW 12,000 FEET WITH NO
SIGNIFICANT WEATHER AND/OR OBSTRUCTIONS TO VISIBILITY.

...SOUTH CENTRAL NEBRASKA...

CITY           SKY/WX    TMP DP  RH WIND       PRES   REMARKS
GRAND ISLAND   CLOUDY    21  19  92 NW7       30.07  WCI  12
HASTINGS       CLEAR     24  20  84 NW9       30.07R WCI  14
KEARNEY        CLEAR     23  18  80 CALM      30.06S
ORD            CLOUDY    19  14  81 CALM      30.04R
YORK           CLEAR     25  21  86 MISG      30.06R
AURORA         CLEAR     23  21  92 CALM      30.06R
LEXINGTON      CLOUDY    25  20  82 NW8       30.07S WCI  16
HOLDREGE       CLEAR     26  22  85 CALM      30.06S
HEBRON         PTCLDY    27  24  88 CALM      30.08R

...NEBRASKA PANHANDLE...

CITY           SKY/WX    TMP DP  RH WIND       PRES   REMARKS
CHADRON        CLOUDY     9   3  77 SW6       30.01F WCI  -1
ALLIANCE       CLOUDY    10   6  84 SW5       30.02S WCI   2
SCOTTSBLUFF    CLOUDY    14   9  80 N3        30.03F
SIDNEY         CLOUDY    12   6  77 W9        30.04F WCI   0

...WESTERN AND NORTH CENTRAL NEBRASKA...

CITY           SKY/WX    TMP DP  RH WIND       PRES   REMARKS
VALENTINE      CLEAR     13   9  84 SW8       30.03S WCI   2
AINSWORTH      CLEAR     16  14  92 W6        30.03S WCI   8
ONEILL         CLEAR     18  15  88 W7        30.03S WCI   9
BROKEN BOW     CLOUDY    23  18  81 CALM      30.03F
IMPERIAL       CLOUDY    21  15  78 W3        30.08S
NORTH PLATTE   CLOUDY    21  17  84 W5        30.06S WCI  15
MCCOOK         CLOUDY    24  21  88 W7        30.09S WCI  16

...EASTERN NEBRASKA...

CITY           SKY/WX    TMP DP  RH WIND       PRES   REMARKS
NORFOLK        CLOUDY    17  13  84 NW8       30.03S WCI   7
SO SIOUX CITY  CLOUDY    21  16  81 NW15G23   30.03S WCI   8
TEKAMAH        CLOUDY    25  20  81 NW12      30.05R WCI  14
COLUMBUS       CLOUDY    21  16  79 CALM      30.06R
ALBION         CLOUDY    17  13  86 CALM      30.03F FOG
OMAHA EPPLEY   FLURRIES  28  24  85 NW12      30.04R WCI  18
OFFUTT AFB     CLOUDY    29  29 100 W7        30.04R WCI  22
MILLARD        CLOUDY    29  25  85 W9        30.05R WCI  20
LINCOLN        PTCLDY    25  19  78 NW8       30.09R WCI  16
NEBRASKA CITY  CLOUDY    30  30 100 NW9       30.04R FOG     WCI  21
BEATRICE       CLOUDY    29  26  88 NW6       30.07R WCI  23
FALLS CITY     CLOUDY    32  30  92 NW13      30.04R WCI  22

...NORTHERN KANSAS...

CITY           SKY/WX    TMP DP  RH WIND       PRES   REMARKS
GOODLAND       CLEAR     23  19  85 W8        30.08S WCI  14
HILL CITY      PTCLDY    30  25  81 NW7       30.10R WCI  23
NORTON         SUNNY     28  19  69 W12       30.07S WCI  18
PHILLIPSBURG   CLEAR     28  25  86 W3        30.10S
SMITH CENTER   CLEAR     25  23  93 W6        30.10R WCI  18
HAYS           PTCLDY    32  27  81 NW8       30.10R WCI  25
RUSSELL        MOCLDY    31  27  85 NW10      30.08R WCI  22
CONCORDIA      PTCLDY    29  26  89 NW8       30.08R WCI  21
SALINA         CLEAR     32  28  85 NW7       30.10  WCI  26
TOPEKA         CLOUDY    35  31  85 W5        30.06R WCI  31



USA.gov is the U.S. government's official web portal to all federal, state and local government web resources and services.